Weather in Sredniy Karachan

Russia / Voronezh Oblast     51°22′37″N   41°46′25″E
temp.,
°C
wind,
m/s
gust,
m/s
humid.,
%
clouds,
%
prec.,
mm/h
press.,
hPa
HPBL,
m
3 march, wed
wed300:000wnw5998100 0.1 1008469
03:000nw5993100 0.4 1009444
06:00−2nnw6109594 0.1 1010503
09:00−1nw5109297 0.3 1013917
12:00−1nnw71083100 0.3 1014831
15:00−2nw6108574 0.3 1016671
18:00−5wnw5128837 0.0 1017362
21:00−6wnw4119119 0.0 1019246
4 march, thu
thu400:00−5wsw5109431 0.0 1017215
03:00−2wsw6119365 0.1 1015701
06:00−1w71388100 0.1 1013790
09:00−1wsw8159199 0.1 1012585
12:00+1wsw8159150 0.0 1010605
15:00+2wsw8168629 0.0 1009741
18:00+1sw716760 0.0 1007559
21:00+1sw7188111 0.0 1006625
5 march, fri
fri500:00+2sw7178685 0.0 1004628
03:00+2wsw7159793 0.1 1002557
06:00+2wsw71496100 0.0 1002504
09:00+1w71396100 0.2 1004664
12:000nw579793 0.1 1007432
15:000nnw348796 0.1 1009513
18:00−2ne2290100 0.0 101187
21:00−2ne2393100 0.0 1012142
6 march, sat
sat600:00−3ne3597100 0.8 1011245
03:00−3nne4696100 2.3 1010335
06:00−4n4794100 0.5 1012390
09:00−5n588792 0.5 1014366
12:00−4nnw578064 0.0 1015614
15:00−4nnw467732 0.0 1016663
18:00−6nw23880 0.0 101682
21:00−7nw23880 0.0 101846
7 march, sun
sun700:00−9nnw23920 0.0 101888
03:00−9wnw119417 0.0 101934
06:00−9ssw339358 0.0 101871
09:00−6sw598729 0.0 1017519
12:00−4sw81369100 0.0 1014945
15:00−2sw101667100 0.0 10111206
18:00−2sw81668100 0.0 10091031
21:00−2wsw81769100 0.0 1008829